Regional Weather Roundup
Issued by NWS Glasgow, MT

Home | Current Version | Previous Version | Text Only | Print | Product List | Glossary On
Versions: 1 2 3 4 5 6 7 8 9 10 11 12 13 14 15 16 17 18 19 20 21 22 23 24 25 26 27 28 29 30 31 32 33 34 35 36 37 38 39 40 41 42 43 44 45 46 47 48 49 50
000
ASUS45 KGGW 270915
RWRGGW
HOURLY REGIONAL WEATHER ROUNDUP FOR NORTHEAST MONTANA
NATIONAL WEATHER SERVICE GLASGOW MONTANA
300 AM MDT WED MAY 27 2015

NOTE: "FAIR" INDICATES FEW OR NO CLOUDS BELOW 12,000 FEET WITH NO
SIGNIFICANT WEATHER AND/OR OBSTRUCTIONS TO VISISBILITY.

NORTHEAST MONTANA


CITY           SKY/WX    TMP DP  RH WIND       PRES   REMARKS
GLASGOW        MOCLDY    59  48  67 N8        29.89S THUNDER
WOLF POINT     PTCLDY    53  46  77 E3        29.89R
JORDAN           N/A     56  53  90 CALM      29.91S
WINNETT          N/A     46  45  96 SW1         N/A
SIDNEY         CLEAR     50  45  81 CALM      29.92R
GLENDIVE       PTCLDY    55  46  71 SE5       29.93R
MALTA            N/A     57  51  80 SW3         N/A
SCOBEY           N/A     49  37  63 CALM      29.91R

FORT PECK REPORTS


CITY           SKY/WX    TMP DP  RH WIND       PRES   REMARKS
FORT PECK        N/A     61  52  72 NW6         N/A
THE PINES        N/A     63  49  60 NW5         N/A

SOUTHEAST MONTANA


CITY           SKY/WX    TMP DP  RH WIND       PRES   REMARKS
BILLINGS       MOCLDY    53  50  89 CALM      29.96S
MILES CITY     CLOUDY    56  49  77 S6        29.90S
BAKER          CLEAR     47  44  90 E5        29.94F
LIVINGSTON     PTCLDY    52  43  71 W21       30.00R

CENTRAL MONTANA


CITY           SKY/WX    TMP DP  RH WIND       PRES   REMARKS
HAVRE          LGT RAIN  55  53  93 W6        29.95R
LEWISTOWN      PTCLDY    47  43  86 S3        29.99R
GREAT FALLS    MOCLDY    47  45  93 W5        29.99R
CUT BANK       PTCLDY    47  45  93 N10       30.01R
HELENA         LGT RAIN  53  47  79 E5        30.03R
BUTTE          CLOUDY    47  42  83 NW3       30.06S
BOZEMAN        CLOUDY    50  47  89 SE6       30.04S

WESTERN MONTANA


CITY           SKY/WX    TMP DP  RH WIND       PRES   REMARKS
MISSOULA       PTCLDY    49  45  86 E6        30.02F
KALISPELL      NOT AVBL

NORTH DAKOTA


CITY           SKY/WX    TMP DP  RH WIND       PRES   REMARKS
WILLISTON      PTCLDY    51  44  77 CALM      29.91R
DICKINSON      CLEAR     50  43  77 SW7       29.94R
MINOT          CLEAR     59  46  62 SW12      29.88R
BISMARCK       CLEAR     51  48  89 CALM      29.93R

SOUTHERN SASKATCHEWAN


CITY           SKY/WX    TMP DP  RH WIND       PRES   REMARKS
REGINA         MOCLDY    57  46  67 NE18      29.93R
ESTEVAN        PTCLDY    50  45  81 W5        29.90R
SWIFT CURRENT  CLEAR     54  48  82 E12       29.92S




USA.gov is the U.S. government's official web portal to all federal, state and local government web resources and services.